KN4URY Weather Reports


Display with metric or nautical units.
time (UTC)temp
F
wind
direction
speed
MPH
gust
MPH
rain 1hr
in
rain 24hr
in
rain mn
in
humidity
%
barometer
mb
20260510124331 63 341 1.0 2.0 0.00 0.00 0.00 79 1014.5
20260510123322 63 341 1.0 2.0 0.00 0.00 0.00 80 1014.4
20260510122316 62 341 1.0 2.0 0.00 0.00 0.00 81 1014.4
20260510121335 61 341 1.0 2.0 0.00 0.00 0.00 81 1014.3
20260510120323 61 341 0.0 3.0 0.00 0.00 0.00 82 1013.9
20260510115319 60 341 0.0 2.0 0.00 0.00 0.00 83 1013.9
20260510114338 60 341 0.0 1.0 0.00 0.00 0.00 83 1013.7
20260510113328 59 341 0.0 1.0 0.00 0.00 0.00 83 1013.5
20260510112318 59 341 0.0 1.0 0.00 0.00 0.00 83 1013.5
20260510111355 59 341 0.0 3.0 0.00 0.00 0.00 83 1013.2
20260510110322 58 341 0.0 1.0 0.00 0.00 0.00 84 1012.8
20260510105329 58 341 0.0 1.0 0.00 0.00 0.00 84 1012.9
20260510104347 59 341 0.0 1.0 0.00 0.00 0.00 84 1012.8
20260510103317 59 341 0.0 2.0 0.00 0.00 0.00 82 1012.6
20260510102313 59 341 0.0 1.0 0.00 0.00 0.00 83 1012.5
20260510101331 59 341 0.0 2.0 0.00 0.00 0.00 84 1012.5
20260510100322 59 341 0.0 3.0 0.00 0.00 0.00 85 1012.4
20260510095311 59 341 0.0 2.0 0.00 0.00 0.00 86 1012.2
20260510094328 59 341 0.0 1.0 0.00 0.00 0.00 88 1012.1
20260510093319 59 341 0.0 1.0 0.00 0.00 0.00 88 1011.8
20260510092355 60 341 0.0 1.0 0.00 0.00 0.00 87 1011.7
20260510091326 60 341 0.0 1.0 0.00 0.00 0.00 88 1011.6
20260510090344 60 341 0.0 3.0 0.00 0.00 0.00 87 1011.5
20260510085312 60 341 0.0 2.0 0.00 0.00 0.00 90 1011.5
20260510084347 60 341 0.0 2.0 0.00 0.00 0.00 91 1011.5
20260510083318 60 341 0.0 2.0 0.00 0.00 0.00 91 1011.6
20260510082335 60 341 0.0 2.0 0.00 0.00 0.00 91 1011.3
20260510081326 61 341 1.0 4.0 0.00 0.00 0.00 91 1011.3
20260510080316 61 341 0.0 2.0 0.00 0.00 0.00 91 1011.3
20260510075332 61 341 0.0 2.0 0.00 0.00 0.00 91 1011.2
20260510074331 61 341 0.0 2.0 0.00 0.00 0.00 91 1011.2
20260510073321 61 341 0.0 1.0 0.00 0.00 0.00 91 1011.2
20260510072338 61 341 0.0 2.0 0.00 0.00 0.00 90 1011.1
20260510071328 61 341 0.0 1.0 0.00 0.00 0.00 90 1011.1
20260510070347 62 341 0.0 2.0 0.00 0.00 0.00 90 1011.0
20260510065318 62 341 1.0 3.0 0.00 0.00 0.00 90 1011.1
20260510064354 62 341 0.0 2.0 0.00 0.00 0.00 89 1011.2
20260510063324 62 341 0.0 2.0 0.00 0.00 0.00 89 1011.2
20260510062313 62 341 0.0 3.0 0.00 0.00 0.00 89 1011.3
20260510061332 62 341 0.0 1.0 0.00 0.00 0.00 89 1011.3
20260510060328 62 341 0.0 2.0 0.00 0.00 0.00 89 1011.3
20260510055315 62 341 0.0 3.0 0.00 0.00 0.00 88 1011.3
20260510054334 62 341 1.0 3.0 0.00 0.00 0.00 88 1011.5
20260510053323 63 341 1.0 3.0 0.00 0.00 0.00 88 1011.7
20260510052318 63 341 1.0 3.0 0.00 0.00 0.00 88 1011.7
20260510051335 63 341 1.0 3.0 0.00 0.00 0.00 88 1011.7
20260510050326 63 341 1.0 5.0 0.00 0.00 0.00 88 1011.7
20260510045318 63 341 1.0 5.0 0.00 0.00 0.00 87 1011.8
20260510044336 63 341 1.0 3.0 0.00 0.00 0.00 87 1011.7
20260510043325 63 341 1.0 4.0 0.00 0.00 0.00 87 1011.6
20260510042313 63 341 1.0 6.0 0.00 0.00 0.00 87 1011.6
20260510041332 63 341 1.0 3.0 0.00 0.00 0.00 87 1011.5
20260510040322 63 341 1.0 3.0 0.00 0.00 0.00 86 1011.3
20260510035337 63 341 1.0 2.0 0.00 0.00 0.00 86 1011.5
20260510034334 63 341 1.0 2.0 0.00 0.00 0.00 85 1011.3
20260510033323 64 341 1.0 3.0 0.00 0.00 0.00 84 1011.1
20260510032342 64 341 0.0 3.0 0.00 0.00 0.00 83 1011.0
20260510031336 64 341 1.0 4.0 0.00 0.00 0.00 82 1011.1
20260510030326 64 341 0.0 3.0 0.00 0.00 0.00 82 1010.9
20260510025342 65 341 1.0 5.0 0.00 0.00 0.00 82 1011.1
20260510024311 65 341 1.0 3.0 0.00 0.00 0.00 81 1010.9
20260510023330 65 341 0.0 4.0 0.00 0.00 0.00 81 1010.9
20260510022319 65 341 0.0 2.0 0.00 0.00 0.00 80 1010.8
20260510021337 65 341 0.0 3.0 0.00 0.00 0.00 80 1010.6
20260510020326 65 341 0.0 1.0 0.00 0.00 0.00 80 1010.5
20260510015316 65 341 0.0 1.0 0.00 0.00 0.00 80 1010.4
20260510014333 65 341 0.0 2.0 0.00 0.00 0.00 79 1010.2
20260510013331 65 341 0.0 2.0 0.00 0.00 0.00 79 1010.0
20260510012322 65 341 0.0 1.0 0.00 0.00 0.00 78 1009.6
20260510011337 66 341 0.0 1.0 0.00 0.00 0.00 77 1009.6
20260510010311 66 341 0.0 1.0 0.00 0.00 0.00 76 1009.6
20260510005330 67 341 0.0 1.0 0.00 0.00 0.00 74 1009.7
20260510004321 67 341 0.0 0.0 0.00 0.00 0.00 73 1009.6
20260510003313 68 341 0.0 0.0 0.00 0.00 0.00 71 1009.4
20260510002330 69 341 0.0 0.0 0.00 0.00 0.00 69 1009.6
20260510001320 70 341 0.0 0.0 0.00 0.00 0.00 68 1009.6
20260510000337 70 341 0.0 1.0 0.00 0.00 0.00 66 1009.1
20260509235328 71 341 0.0 1.0 0.00 0.00 0.00 65 1009.0
20260509234344 73 341 0.0 4.0 0.00 0.00 0.00 63 1008.8
20260509233341 74 341 0.0 2.0 0.00 0.00 0.00 60 1008.9
20260509232337 76 341 0.0 3.0 0.00 0.00 0.00 59 1008.9
20260509231329 76 341 0.0 6.0 0.00 0.00 0.00 58 1008.8
20260509230320 77 341 1.0 5.0 0.00 0.00 0.00 57 1008.9
20260509225337 76 341 0.0 6.0 0.00 0.00 0.00 57 1008.9
20260509224331 75 341 3.0 6.0 0.00 0.00 0.00 57 1008.8
20260509223350 75 341 2.0 7.0 0.00 0.00 0.00 57 1008.8
20260509222318 77 341 2.0 10.0 0.00 0.00 0.00 53 1008.9
20260509221356 77 341 2.0 10.0 0.00 0.00 0.00 55 1008.7
20260509220326 77 341 3.0 8.0 0.00 0.00 0.00 53 1008.7
20260509215322 77 341 5.0 11.0 0.00 0.00 0.00 52 1008.5
20260509214313 77 341 5.0 11.0 0.00 0.00 0.00 52 1008.4
20260509213331 78 341 3.0 7.0 0.00 0.00 0.00 53 1008.4
20260509212323 77 341 3.0 12.0 0.00 0.00 0.00 53 1008.4
20260509211314 77 341 3.0 11.0 0.00 0.00 0.00 54 1008.3
20260509210351 77 341 4.0 10.0 0.00 0.00 0.00 54 1008.3
20260509205323 77 341 3.0 9.0 0.00 0.00 0.00 55 1008.5
20260509204312 75 341 3.0 8.0 0.00 0.00 0.00 57 1008.7
20260509203329 75 341 1.0 9.0 0.00 0.00 0.00 56 1008.6
20260509202318 76 341 3.0 8.0 0.00 0.00 0.00 56 1008.6
20260509201313 76 341 6.0 11.0 0.00 0.00 0.00 55 1008.6
20260509200330 75 341 4.0 8.0 0.00 0.00 0.00 56 1008.5
20260509195322 74 341 1.0 9.0 0.00 0.00 0.00 57 1008.7
20260509194316 74 341 5.0 12.0 0.00 0.00 0.00 56 1008.8
20260509193334 75 341 3.0 11.0 0.00 0.00 0.00 54 1008.7
20260509192327 74 341 4.0 11.0 0.00 0.00 0.00 56 1008.8
20260509191319 75 341 2.0 11.0 0.00 0.00 0.00 57 1009.0
20260509190312 75 341 4.0 11.0 0.00 0.00 0.00 57 1009.1
20260509185329 74 341 2.0 8.0 0.00 0.00 0.00 58 1009.1
20260509184321 75 341 5.0 14.0 0.00 0.00 0.00 55 1009.3
20260509183336 75 341 5.0 15.0 0.00 0.00 0.00 58 1009.4
20260509182329 74 341 4.0 10.0 0.00 0.00 0.00 60 1009.6
20260509181345 73 341 5.0 11.0 0.00 0.00 0.00 59 1009.7
20260509180316 75 341 4.0 17.0 0.00 0.00 0.00 57 1009.7
20260509175332 75 341 4.0 12.0 0.00 0.00 0.00 59 1009.6
20260509174323 74 341 6.0 12.0 0.00 0.00 0.00 59 1009.9
20260509173314 72 341 3.0 13.0 0.00 0.00 0.00 62 1009.9
20260509172321 72 341 2.0 13.0 0.00 0.00 0.00 62 1010.1
20260509171312 72 341 5.0 9.0 0.00 0.00 0.00 60 1010.1
20260509170329 72 341 4.0 16.0 0.00 0.00 0.00 59 1010.1
20260509165320 73 341 3.0 11.0 0.00 0.00 0.00 60 1010.3
20260509164336 72 341 6.0 12.0 0.00 0.00 0.00 63 1010.4
20260509163333 71 341 5.0 10.0 0.00 0.00 0.00 64 1010.7
20260509162329 72 341 6.0 10.0 0.00 0.00 0.00 64 1010.8
20260509161314 72 341 4.0 15.0 0.00 0.00 0.00 65 1010.9
20260509160330 70 341 4.0 12.0 0.00 0.00 0.00 68 1010.8
20260509155320 69 341 4.0 8.0 0.00 0.00 0.00 69 1011.0
20260509154315 70 341 4.0 12.0 0.00 0.00 0.00 68 1011.1
20260509153331 70 341 4.0 8.0 0.00 0.00 0.00 68 1011.2
20260509152322 69 341 4.0 9.0 0.00 0.00 0.00 71 1011.5
20260509151357 68 341 3.0 13.0 0.00 0.00 0.00 73 1011.6
20260509150328 67 341 2.0 10.0 0.00 0.00 0.00 74 1011.6
20260509145320 66 341 2.0 7.0 0.00 0.00 0.00 75 1011.6
20260509144336 64 341 0.0 8.0 0.00 0.00 0.00 78 1011.8
20260509143326 63 341 1.0 6.0 0.00 0.00 0.00 79 1011.9
20260509142317 63 341 1.0 4.0 0.00 0.00 0.00 79 1012.1
20260509141335 62 341 2.0 6.0 0.00 0.00 0.00 79 1012.2
20260509140353 61 341 1.0 5.0 0.00 0.00 0.00 82 1012.3
20260509135320 60 341 1.0 6.0 0.00 0.00 0.00 81 1012.5
20260509134312 60 341 1.0 9.0 0.00 0.00 0.00 82 1012.5
20260509133329 59 341 1.0 4.0 0.00 0.00 0.00 84 1012.7
20260509132320 58 341 2.0 9.0 0.00 0.00 0.00 85 1012.7
20260509131338 58 341 3.0 7.0 0.00 0.00 0.00 85 1012.8
20260509130325 58 341 2.0 7.0 0.00 0.00 0.00 85 1012.9
20260509125313 57 341 2.0 4.0 0.00 0.00 0.00 86 1012.8